Theta_e
300 299 299 298 298 300 301 300 298 297 298 298 298 298 298 295 292 291 290 289 289 291 295 297 298 300 302 302 302 302 302 302 302 304 303 303 309 320 323 325 327 328 332 329
299 299 299 299 299 299 299 298 297 298 297 296 297 297 295 293 291 290 289 288 288 289 295 299 300 299 301 302 302 302 302 302 303 304 304 306 312 324 326 327 327 330 326 325
298 299 299 299 298 298 297 297 296 295 296 297 296 296 293 292 291 288 288 287 287 287 290 296 298 299 300 302 302 302 302 302 304 305 305 311 311 324 328 329 328 327 325 328
299 299 299 298 298 297 295 295 295 296 296 295 297 294 292 291 290 288 287 286 286 287 290 295 299 298 298 301 302 302 303 303 304 304 312 311 309 323 327 327 326 327 326 326
299 299 298 293 297 296 293 293 295 297 297 298 300 295 291 289 288 286 286 285 285 286 289 293 298 303 299 299 301 301 303 303 303 308 318 316 315 322 325 326 325 326 325 326
298 299 298 298 297 295 293 292 298 301 296 295 297 296 291 288 286 285 284 284 284 285 288 291 296 300 302 303 303 303 305 303 305 313 318 316 321 323 327 324 325 325 326 325
297 298 298 297 294 294 292 287 285 292 293 301 297 293 289 288 285 284 283 283 284 285 287 289 291 294 298 300 303 305 307 310 313 316 318 318 320 321 324 325 325 324 324 324
291 294 296 295 290 288 292 285 282 288 294 296 297 294 291 287 284 282 282 283 283 284 285 287 289 291 293 296 300 302 306 308 312 314 316 319 320 321 321 321 322 323 323 322
290 291 296 295 293 290 290 290 292 287 290 294 297 294 291 288 283 281 280 281 282 283 284 285 286 289 291 294 296 298 302 302 304 306 311 317 315 316 317 315 317 318 314 311
291 293 296 297 292 292 292 291 290 291 286 287 292 289 286 283 280 279 279 280 280 281 282 283 285 287 289 291 292 295 296 296 295 298 306 310 310 311 310 311 311 310 309 309
294 290 295 293 286 284 290 288 290 292 292 288 288 284 282 280 280 278 278 280 280 281 281 283 284 285 287 289 290 291 292 290 289 291 300 306 307 306 304 305 302 303 303 303
295 290 290 291 287 289 290 284 287 290 293 294 292 291 284 281 279 279 279 279 280 280 281 282 283 285 286 286 286 287 288 285 285 289 298 300 300 299 300 299 299 300 300 299
292 295 290 294 294 294 289 291 289 289 291 292 293 290 284 281 279 278 278 278 279 279 281 282 283 283 283 284 285 285 284 283 283 286 297 298 298 297 296 297 297 295 296 292
296 292 289 293 293 285 289 290 289 289 287 285 287 285 282 280 278 277 277 277 278 279 280 281 282 282 282 283 283 283 282 282 283 289 295 295 294 292 290 286 288 288 286 285
292 295 286 284 285 287 285 287 286 283 284 286 287 283 280 278 278 277 277 277 278 278 279 280 281 282 282 283 282 281 280 281 283 289 286 284 283 283 283 283 284 284 284 284
293 291 289 289 284 284 287 290 286 285 281 283 283 282 280 279 277 277 277 277 277 278 280 280 281 282 283 281 280 280 280 280 281 283 283 283 283 284 284 283 284 284 284 284
291 288 286 289 288 291 293 288 282 279 279 282 283 283 281 279 277 276 277 277 277 279 280 280 282 282 280 279 279 279 281 283 284 284 283 284 283 284 283 283 284 284 284 283
291 287 286 291 286 293 292 280 280 282 279 277 278 281 282 280 278 278 279 279 279 280 281 281 280 279 279 280 280 281 282 283 284 284 283 283 283 283 283 283 283 283 283 283
291 289 291 292 284 292 297 290 287 288 288 279 280 278 285 283 282 280 281 280 279 279 279 279 279 279 279 280 281 282 283 283 283 283 282 281 282 282 282 282 282 282 283 283
294 289 290 298 297 291 290 285 292 289 294 285 286 284 285 285 284 279 280 279 280 281 280 279 279 279 280 280 280 282 282 282 282 281 281 281 281 282 282 282 282 282 282 282
290 286 290 300 289 293 286 290 293 296 298 291 288 288 287 284 285 283 281 281 280 280 281 280 279 280 280 280 282 283 282 282 281 281 281 281 281 281 281 281 281 281 281 281
294 291 289 287 291 294 291 291 293 294 292 294 291 290 287 287 286 285 282 281 282 282 280 279 279 279 280 281 282 282 282 280 280 280 280 281 281 281 281 281 281 281 281 280
296 296 299 296 296 292 293 293 295 296 297 293 293 292 290 287 285 284 283 282 280 280 279 280 280 280 280 280 281 282 281 280 280 280 280 280 280 280 280 280 280 281 281 281
295 294 293 293 290 289 293 293 294 296 298 297 295 293 290 289 286 284 283 282 281 280 279 279 280 280 280 280 280 281 280 279 279 280 280 280 281 280 280 280 279 279 280 280
295 293 293 292 291 292 292 293 295 297 295 294 293 292 291 289 286 285 283 282 281 281 281 281 281 281 281 281 281 281 280 279 280 281 281 280 279 279 279 279 279 279 279 278
294 294 295 298 297 296 296 297 295 297 294 294 293 291 289 288 287 284 283 282 281 281 281 280 280 280 281 281 281 281 281 280 280 280 280 279 279 279 279 279 278 278 277 277
Wind_Speed
4 5 4 7 6 10 15 13 19 19 14 10 9 9 13 13 21 24 28 31 35 37 31 25 22 14 6 5 13 17 21 20 12 12 15 13 15 7 6 14 14 21 36 34
5 2 5 9 10 13 13 19 16 10 18 17 5 10 11 14 18 20 24 28 32 41 39 32 22 20 10 6 6 9 14 15 12 14 16 14 12 8 7 14 16 23 24 28
1 3 6 9 13 18 16 9 14 20 18 6 3 4 13 16 18 26 29 28 33 35 40 42 30 18 14 8 6 10 14 14 14 16 16 13 14 10 14 16 20 13 11 28
4 6 7 9 10 17 11 8 19 19 7 2 2 3 16 15 15 19 30 34 36 39 42 37 33 22 14 11 11 12 14 17 18 15 15 14 17 16 20 19 14 15 15 25
4 6 9 5 10 13 8 20 14 11 2 1 2 4 7 13 17 24 27 34 37 38 37 36 29 23 13 13 14 19 14 16 17 12 12 13 16 14 14 17 15 17 14 24
5 9 3 3 13 5 18 6 3 2 3 5 9 4 6 9 13 18 23 32 35 38 38 36 26 22 24 9 13 13 13 14 11 12 14 16 13 17 24 21 19 21 28 31
6 4 3 5 9 4 18 7 4 6 5 4 3 8 1 6 9 10 18 29 34 34 33 35 30 27 23 15 5 4 4 3 5 7 14 18 18 23 23 24 26 25 26 26
4 8 7 7 5 5 7 4 3 4 1 3 6 3 3 7 11 18 22 23 24 28 33 31 29 25 22 17 11 6 3 1 6 9 18 22 22 25 24 24 24 26 21 24
4 6 3 5 2 4 7 5 3 1 3 1 3 1 10 17 13 19 22 26 29 33 32 31 26 24 22 17 15 10 9 10 15 19 26 23 27 26 25 25 24 24 25 24
3 4 4 2 7 5 4 3 3 2 4 4 3 2 3 21 21 18 20 25 27 29 31 32 27 24 20 17 15 13 13 17 21 29 35 37 37 35 35 33 33 34 36 35
2 3 7 4 3 4 4 3 2 3 2 2 2 3 3 9 10 13 18 24 26 30 31 27 24 22 20 17 17 18 20 23 25 36 44 44 42 41 43 44 45 45 44 43
2 3 4 7 5 6 4 3 1 1 3 1 1 2 3 6 11 15 20 22 22 23 25 24 24 22 21 21 24 26 28 29 31 40 47 51 50 50 51 51 50 46 46 45
3 1 4 9 3 1 2 3 2 3 3 2 1 3 3 11 12 16 16 21 20 22 24 26 25 25 24 26 30 30 31 30 37 47 59 58 56 55 55 52 50 49 46 44
2 1 5 4 8 1 8 5 7 2 2 4 4 4 12 15 13 17 20 20 21 24 27 30 27 27 28 28 32 33 29 33 40 54 60 59 56 54 53 52 49 46 45 44
3 1 2 4 7 0 4 6 7 4 2 1 7 3 3 6 10 15 16 18 22 26 29 29 28 26 30 30 30 28 29 34 47 57 57 57 55 54 51 49 48 45 43 41
2 1 2 5 3 2 4 9 2 5 2 2 5 2 4 6 8 13 17 17 22 24 25 25 25 27 30 24 20 25 35 42 49 54 54 52 50 47 45 44 43 40 39 37
2 2 3 4 2 2 6 5 2 5 3 4 3 4 1 4 6 10 13 17 19 21 22 25 27 24 20 22 26 34 40 44 46 48 46 44 43 42 40 39 37 36 34 31
1 1 2 3 3 5 6 3 3 5 6 5 2 4 3 5 7 10 12 17 20 22 24 24 21 19 22 27 33 37 39 41 41 41 40 38 37 37 36 35 34 33 31 29
3 1 2 2 2 5 3 4 5 5 3 9 6 4 7 7 4 9 10 13 16 20 19 18 18 22 26 30 32 35 36 36 37 37 35 33 32 32 31 30 29 28 25 25
2 3 3 2 2 3 7 4 6 3 4 18 13 10 10 11 2 3 6 13 18 18 18 18 18 20 23 27 30 31 33 33 33 31 30 28 27 26 26 25 24 23 21 20
2 1 4 2 3 7 5 7 7 5 5 20 26 20 13 3 4 16 14 15 17 17 17 17 17 21 22 22 23 27 27 29 27 25 25 24 23 23 22 21 19 17 17 17
6 6 4 2 3 6 11 6 7 4 10 25 23 22 19 14 18 17 17 18 18 18 16 15 16 18 19 18 18 23 24 25 22 20 20 19 19 19 18 15 15 14 14 14
3 6 4 8 5 3 33 3 17 10 23 25 24 21 18 26 23 20 20 20 19 18 17 16 14 16 17 16 15 19 21 19 17 16 16 15 15 15 14 12 12 11 11 11
4 5 2 4 3 6 30 19 15 19 25 23 21 23 26 27 26 25 23 22 21 18 16 14 15 16 17 17 16 16 17 15 12 11 12 12 10 9 9 8 9 9 9 11
4 7 5 6 4 2 14 34 19 26 25 25 24 25 26 27 29 28 27 24 21 19 19 18 16 16 17 17 15 14 14 12 8 7 8 8 7 7 7 8 9 10 10 10
11 7 6 6 12 7 6 35 28 33 32 30 29 29 26 25 27 27 26 24 23 22 20 20 18 16 16 15 13 12 11 10 7 6 6 6 5 6 6 6 6 7 9 12
Wind_Direction
306 57 1 309 290 277 293 312 312 305 310 358 340 316 351 47 28 20 13 2 352 345 333 320 298 294 324 283 274 273 279 261 260 274 281 258 234 229 221 210 216 204 210 213
14 40 352 348 337 319 319 313 308 301 330 314 176 11 59 42 37 22 14 3 352 346 349 344 320 282 270 297 290 283 272 268 253 272 276 269 239 214 208 194 191 195 222 234
291 308 350 342 327 329 335 316 327 309 319 318 163 117 28 11 26 8 10 2 356 346 339 344 344 294 264 267 263 273 279 273 266 269 270 261 228 210 181 180 194 198 209 209
275 325 332 330 334 343 321 340 310 308 334 321 101 160 30 351 349 7 4 358 350 347 352 349 358 338 273 245 245 286 282 263 262 262 247 234 226 212 203 192 171 167 179 198
283 308 316 348 339 334 262 317 303 300 260 268 77 75 347 359 355 354 353 351 346 347 350 354 7 359 313 286 278 291 289 272 263 254 222 226 223 220 196 165 163 181 189 196
261 289 7 332 314 288 332 320 114 194 85 37 3 94 8 7 345 340 343 345 346 350 357 7 17 33 39 348 298 291 289 278 281 233 222 216 200 193 172 165 161 177 183 190
331 295 350 353 334 312 358 22 6 12 19 17 45 57 196 347 4 343 334 338 344 351 0 11 18 26 34 35 40 22 345 301 265 216 210 198 207 186 169 160 174 174 180 184
23 340 22 333 120 250 320 97 114 172 163 273 27 2 193 73 18 348 345 342 345 355 13 15 21 28 35 27 37 55 74 174 197 189 183 186 174 154 158 158 166 170 183 189
19 285 330 64 85 55 318 34 230 144 282 289 152 109 143 1 353 350 350 350 352 0 6 12 24 34 41 44 49 66 101 116 139 145 147 159 149 143 144 141 150 154 142 140
255 307 277 21 41 11 90 296 23 21 9 334 305 64 293 338 344 343 345 344 345 356 7 17 31 40 52 61 69 85 109 116 123 129 131 132 127 125 125 125 122 123 120 119
152 117 294 25 17 221 13 3 330 279 142 174 314 307 256 310 327 333 325 335 350 0 13 26 37 49 62 72 81 94 105 104 111 119 124 124 120 120 118 116 115 113 114 113
196 177 280 257 244 194 139 200 147 78 304 60 230 285 273 329 340 339 333 343 358 14 32 42 48 59 71 80 84 94 100 95 98 111 117 113 113 112 110 108 107 109 108 107
269 2 343 334 320 20 25 33 318 236 271 102 280 326 329 356 347 347 344 351 1 26 44 50 55 62 70 79 89 95 95 94 96 104 109 109 110 109 108 108 108 107 107 104
159 117 148 178 238 210 314 354 13 20 47 303 157 283 342 339 341 345 351 2 9 36 45 58 64 66 71 84 88 91 87 89 99 107 110 110 110 109 108 108 108 105 105 105
105 259 133 250 249 296 254 296 72 55 244 82 310 94 312 319 326 334 353 18 32 36 50 58 68 71 84 90 89 88 88 95 103 106 107 106 108 107 107 106 104 105 104 101
348 237 73 307 341 74 311 299 66 99 309 309 331 334 132 16 349 0 19 32 35 43 61 67 79 87 88 89 88 93 103 107 107 104 103 105 106 106 106 106 104 103 101 100
43 97 75 281 30 31 340 277 316 119 269 204 40 253 78 21 356 14 39 56 61 67 70 75 81 90 99 101 106 106 105 104 101 101 102 103 103 103 102 101 100 97 96 98
19 78 110 243 16 27 248 283 179 138 155 251 266 263 240 139 74 58 72 80 78 77 77 83 90 96 101 104 104 105 104 102 101 103 104 105 105 103 101 99 98 98 96 92
138 123 359 72 193 284 297 229 205 153 255 181 200 226 193 182 127 54 86 92 89 89 94 95 100 106 109 110 110 109 108 108 107 105 104 103 101 101 100 99 96 93 94 92
153 104 103 37 96 217 234 234 220 132 345 171 183 196 181 174 123 240 132 112 102 100 106 111 113 113 114 114 114 114 109 108 103 104 103 102 103 101 99 95 93 90 87 89
239 309 172 217 239 286 240 162 141 68 235 168 171 174 177 193 192 143 133 121 120 124 122 117 119 120 115 116 117 111 109 104 102 104 106 109 106 100 97 95 93 91 87 84
177 150 200 90 43 309 164 109 162 217 149 168 173 170 166 154 154 150 148 146 141 139 134 133 131 124 119 120 122 116 112 108 111 112 111 106 102 99 95 98 98 87 76 69
280 190 188 181 216 170 178 184 210 192 171 178 178 175 170 160 164 163 160 157 154 154 152 147 145 137 133 130 125 119 111 114 115 115 111 109 104 98 93 83 78 74 67 57
251 178 223 32 254 210 199 210 207 194 185 180 182 177 173 169 169 167 168 167 167 164 164 162 157 149 142 138 136 129 123 123 124 120 107 100 98 97 96 88 77 65 57 46
190 146 188 265 271 231 233 213 206 188 189 183 184 186 178 178 174 175 175 178 177 177 174 169 164 162 157 150 148 135 129 122 129 121 115 112 106 96 74 55 43 33 27 21
186 188 175 222 201 179 233 203 191 189 187 186 184 183 187 189 183 180 181 182 182 181 179 175 171 169 163 155 156 149 144 137 141 135 126 113 90 69 52 40 28 16 13 7